Location: Haliburton Scout Reserve
(45.0900°N, 78.3200°W)
Time: 00:16:17
(UTC-05:00)

Transit 2A Rocket - All Passes

Search period start: 30 January 2023 00:00
Search period end: 09 February 2023 00:00
Orbit: 585 x 915 km, 66.7° (Epoch: 29 January)

Date Brightness Start Highest point End Pass type
(mag) Time Alt. Az. Time Alt. Az. Time Alt. Az.
30 Jan - 01:34:01 10° SW 01:38:49 49° NW 01:44:09 10° NNE night (unlit)
30 Jan - 03:20:14 10° WNW 03:22:53 14° NNW 03:25:38 10° N visible
30 Jan - 06:51:02 10° N 06:53:45 13° NNE 06:56:29 10° NE visible
30 Jan - 08:32:21 10° NNW 08:37:58 41° NE 08:43:42 10° ESE daylight
30 Jan - 10:14:59 10° NW 10:20:39 43° WSW 10:26:21 10° S daylight
30 Jan - 23:11:18 10° SE 23:13:58 15° ESE 23:16:46 10° ENE night (unlit)
31 Jan - 00:50:45 10° SW 00:55:40 80° NW 01:01:09 10° NNE night (unlit)
31 Jan - 02:35:38 10° WNW 02:39:14 18° NNW 02:43:03 10° N visible
31 Jan - 06:09:08 10° N 06:09:58 10° NNE 06:10:47 10° NNE visible
31 Jan - 07:49:29 10° NNW 07:54:36 29° NE 07:59:50 10° E daylight
31 Jan - 09:31:43 10° NW 09:37:42 68° WSW 09:43:45 10° SSE daylight
31 Jan - 11:17:24 10° W 11:19:17 11° W 11:21:11 10° WSW daylight
01 Feb - 00:07:50 10° SSW 00:12:39 62° ESE 00:18:00 10° NE night (unlit)
01 Feb - 01:51:27 10° W 01:55:42 26° NW 02:00:20 10° NNE night (unlit)
01 Feb - 07:06:43 10° NNW 07:11:07 21° NE 07:15:36 10° E daylight
01 Feb - 08:48:37 10° NNW 08:54:39 79° NE 09:00:47 10° SE daylight
01 Feb - 10:32:24 10° WNW 10:36:40 20° WSW 10:40:55 10° SSW daylight
01 Feb - 23:25:21 10° S 23:29:47 36° ESE 23:34:39 10° NE night (unlit)
02 Feb - 01:07:37 10° WSW 01:12:19 38° NW 01:17:28 10° NNE night (unlit)
02 Feb - 02:54:41 10° NW 02:56:38 12° NNW 02:58:39 10° N visible
02 Feb - 06:24:03 10° N 06:27:30 16° NNE 06:31:01 10° ENE visible
02 Feb - 08:05:37 10° NNW 08:11:29 52° NE 08:17:26 10° SE daylight
02 Feb - 09:48:36 10° NW 09:53:55 32° WSW 09:59:13 10° S daylight
02 Feb - 22:43:27 10° SSE 22:47:04 21° ESE 22:50:56 10° ENE night (unlit)
03 Feb - 00:24:08 10° SW 00:29:04 60° NW 00:34:32 10° NNE night (unlit)
03 Feb - 02:09:47 10° WNW 02:12:56 16° NNW 02:16:13 10° N visible
03 Feb - 05:41:36 10° N 05:43:46 12° NNE 05:45:58 10° NE visible
03 Feb - 07:22:43 10° NNW 07:28:11 35° NE 07:33:45 10° ESE daylight
03 Feb - 09:05:11 10° NW 09:11:02 52° WSW 09:16:55 10° S daylight
03 Feb - 22:02:51 10° ESE 22:04:27 11° E 22:06:07 10° E night (unlit)
03 Feb - 23:41:01 10° SSW 23:45:57 84° ESE 23:51:28 10° NNE night (unlit)
04 Feb - 01:25:22 10° W 01:29:19 21° NW 01:33:33 10° NNE night (unlit)
04 Feb - 06:39:54 10° NNW 06:44:45 25° NE 06:49:43 10° E visible
04 Feb - 08:21:59 10° NW 08:28:03 82° WSW 08:34:09 10° SSE daylight
04 Feb - 10:06:37 10° WNW 10:09:48 15° WSW 10:12:58 10° SW daylight
04 Feb - 22:58:15 10° S 23:03:00 49° ESE 23:08:15 10° NE night (unlit)
05 Feb - 00:41:20 10° WSW 00:45:51 30° NW 00:50:45 10° NNE night (unlit)
05 Feb - 02:29:33 10° NNW 02:30:26 10° NNW 02:31:19 10° N visible
05 Feb - 05:57:09 10° N 06:01:13 18° NNE 06:05:21 10° ENE visible
05 Feb - 07:38:55 10° NNW 07:44:56 66° NE 07:51:01 10° SE daylight
05 Feb - 09:22:21 10° NW 09:27:07 25° WSW 09:31:53 10° SSW daylight
05 Feb - 22:15:59 10° SSE 22:20:12 29° ESE 22:24:46 10° NE night (unlit)
05 Feb - 23:57:39 10° WSW 00:02:30 45° NW 00:07:52 10° NNE night (unlit)
06 Feb - 01:44:04 10° NW 01:46:39 13° NNW 01:49:20 10° N visible
06 Feb - 05:14:32 10° N 05:17:33 14° NNE 05:20:35 10° ENE visible
06 Feb - 06:55:58 10° NNW 07:01:43 44° NE 07:07:32 10° ESE visible
06 Feb - 08:38:43 10° NW 08:44:19 39° WSW 08:49:54 10° S daylight
06 Feb - 21:34:24 10° SE 21:37:31 17° ESE 21:40:48 10° ENE night (unlit)
06 Feb - 23:14:19 10° SW 23:19:18 73° NW 23:24:52 10° NNE night (unlit)
07 Feb - 00:59:25 10° WNW 01:02:59 18° NNW 01:06:45 10° N night (unlit)
07 Feb - 04:32:15 10° N 04:33:46 11° NNE 04:35:16 10° NE visible
07 Feb - 06:13:05 10° NNW 06:18:21 31° NE 06:23:42 10° ESE visible
07 Feb - 07:55:24 10° NW 08:01:24 63° WSW 08:07:23 10° SSE daylight
07 Feb - 09:42:11 10° W 09:42:53 10° W 09:43:34 10° WSW daylight
07 Feb - 22:31:20 10° SSW 22:36:15 68° ESE 22:41:44 10° NE night (unlit)
08 Feb - 00:15:09 10° W 00:19:25 25° NW 00:24:00 10° NNE night (unlit)
08 Feb - 05:30:17 10° NNW 05:34:53 22° NE 05:39:32 10° E visible
08 Feb - 07:12:16 10° NNW 07:18:21 85° NE 07:24:28 10° SSE daylight
08 Feb - 08:56:17 10° WNW 09:00:16 18° WSW 09:04:14 10° SW daylight
08 Feb - 21:48:45 10° S 21:53:22 40° ESE 21:58:25 10° NE night (unlit)
08 Feb - 23:31:16 10° WSW 23:35:59 36° NW 23:41:09 10° NNE night (unlit)
